TimeCDT,TemperatureF,Dew PointF,Humidity,Sea Level PressureIn,VisibilityMPH,Wind Direction,Wind SpeedMPH,Gust SpeedMPH,PrecipitationIn,Events,Conditions,WindDirDegrees,DateUTC
12:15 AM,78.8,60.8,54,30.18,5.0,Calm,Calm,-,N/A,,Haze,0,2013-07-18 05:15:00
12:35 AM,78.8,60.8,54,30.16,5.0,Calm,Calm,-,N/A,,Haze,0,2013-07-18 05:35:00
12:55 AM,78.8,60.8,54,30.15,3.0,Calm,Calm,-,N/A,,Haze,0,2013-07-18 05:55:00
1:15 AM,77.0,60.8,57,30.17,1.0,ENE,17.3,25.3,0.08,Rain,Heavy Rain,60,2013-07-18 06:15:00
1:35 AM,71.6,53.6,53,30.24,0.2,ESE,12.7,25.3,1.12,Rain,Heavy Rain,110,2013-07-18 06:35:00
1:55 AM,69.8,53.6,56,30.19,1.0,South,12.7,21.9,1.46,,Haze,170,2013-07-18 06:55:00
2:15 AM,71.6,53.6,53,30.17,10.0,SW,9.2,-,N/A,,Mostly Cloudy,220,2013-07-18 07:15:00
2:35 AM,71.6,55.4,57,30.17,10.0,Calm,Calm,-,N/A,,Mostly Cloudy,0,2013-07-18 07:35:00
2:55 AM,71.6,55.4,57,30.18,7.0,ESE,12.7,17.3,N/A,Rain,Rain,110,2013-07-18 07:55:00
3:15 AM,71.6,55.4,57,30.17,7.0,South,8.1,-,0.01,,Scattered Clouds,190,2013-07-18 08:15:00
3:35 AM,71.6,55.4,57,30.17,9.0,West,4.6,-,0.01,,Partly Cloudy,270,2013-07-18 08:35:00
3:55 AM,71.6,55.4,57,30.16,10.0,SW,3.5,-,0.01,,Clear,220,2013-07-18 08:55:00
4:15 AM,71.6,55.4,57,30.17,9.0,ESE,8.1,-,N/A,,Clear,110,2013-07-18 09:15:00
4:35 AM,71.6,55.4,57,30.17,7.0,East,6.9,-,N/A,,Light Drizzle,100,2013-07-18 09:35:00
4:55 AM,71.6,55.4,57,30.18,7.0,Calm,Calm,-,N/A,,Clear,0,2013-07-18 09:55:00
5:15 AM,71.6,55.4,57,30.16,8.0,Calm,Calm,-,N/A,,Light Drizzle,0,2013-07-18 10:15:00
5:35 AM,71.6,55.4,57,30.16,8.0,Calm,Calm,-,N/A,,Clear,0,2013-07-18 10:35:00
5:55 AM,71.6,53.6,53,30.16,9.0,Calm,Calm,-,N/A,,Clear,0,2013-07-18 10:55:00
6:15 AM,71.6,53.6,53,30.16,7.0,Calm,Calm,-,N/A,,Clear,0,2013-07-18 11:15:00
6:35 AM,71.6,53.6,53,30.15,5.0,Calm,Calm,-,N/A,,Haze,0,2013-07-18 11:35:00
6:55 AM,71.6,55.4,57,30.15,5.0,Calm,Calm,-,N/A,,Haze,0,2013-07-18 11:55:00
7:15 AM,71.6,55.4,57,30.15,5.0,Calm,Calm,-,N/A,,Haze,0,2013-07-18 12:15:00
7:35 AM,73.4,55.4,53,30.14,8.0,NNE,3.5,-,N/A,,Clear,30,2013-07-18 12:35:00
7:55 AM,73.4,57.2,57,30.15,8.0,SE,5.8,-,N/A,,Clear,140,2013-07-18 12:55:00
8:15 AM,73.4,57.2,57,30.17,9.0,East,4.6,-,N/A,,Clear,100,2013-07-18 13:15:00
8:35 AM,75.2,57.2,53,30.17,8.0,East,3.5,-,N/A,,Clear,80,2013-07-18 13:35:00
8:55 AM,75.2,57.2,53,30.18,7.0,East,3.5,-,N/A,,Light Drizzle,90,2013-07-18 13:55:00
9:15 AM,75.2,57.2,53,30.18,9.0,Calm,Calm,-,N/A,,Clear,0,2013-07-18 14:15:00
9:35 AM,75.2,59.0,57,30.18,9.0,Calm,Calm,-,N/A,,Clear,0,2013-07-18 14:35:00
9:55 AM,77.0,60.8,57,30.18,9.0,Calm,Calm,-,N/A,,Clear,0,2013-07-18 14:55:00
10:15 AM,78.8,62.6,57,30.18,10.0,SSE,3.5,-,N/A,,Clear,160,2013-07-18 15:15:00
10:35 AM,78.8,60.8,54,30.18,8.0,SSE,4.6,-,N/A,Rain,Heavy Rain,150,2013-07-18 15:35:00
10:55 AM,77.0,60.8,57,30.19,7.0,Calm,Calm,-,0.09,Rain,Light Rain,0,2013-07-18 15:55:00
11:15 AM,77.0,60.8,57,30.18,3.0,SSW,3.5,-,0.04,,Haze,210,2013-07-18 16:15:00
11:35 AM,77.0,60.8,57,30.18,7.0,SSW,4.6,-,0.05,,Scattered Clouds,210,2013-07-18 16:35:00
11:55 AM,80.6,62.6,54,30.17,8.0,South,5.8,-,0.05,,Mostly Cloudy,190,2013-07-18 16:55:00
12:15 PM,82.4,64.4,54,30.16,9.0,SSW,8.1,-,N/A,,Scattered Clouds,210,2013-07-18 17:15:00
12:35 PM,82.4,66.2,58,30.15,9.0,SW,9.2,-,N/A,,Partly Cloudy,220,2013-07-18 17:35:00
12:55 PM,84.2,66.2,55,30.15,9.0,SSW,6.9,-,N/A,,Partly Cloudy,210,2013-07-18 17:55:00
1:15 PM,86.0,69.8,58,30.14,9.0,WSW,5.8,-,N/A,,Partly Cloudy,250,2013-07-18 18:15:00
1:35 PM,86.0,69.8,58,30.12,10.0,WSW,6.9,-,N/A,,Scattered Clouds,240,2013-07-18 18:35:00
1:55 PM,87.8,69.8,55,30.11,10.0,South,4.6,-,N/A,,Scattered Clouds,180,2013-07-18 18:55:00
2:15 PM,87.8,71.6,58,30.10,9.0,SSW,5.8,-,N/A,,Partly Cloudy,200,2013-07-18 19:15:00
2:35 PM,89.6,71.6,55,30.10,9.0,SSW,3.5,-,N/A,,Clear,200,2013-07-18 19:35:00
2:55 PM,89.6,71.6,55,30.09,9.0,South,6.9,-,N/A,,Partly Cloudy,190,2013-07-18 19:55:00
3:15 PM,89.6,71.6,55,30.07,9.0,South,8.1,-,N/A,,Clear,170,2013-07-18 20:15:00
3:35 PM,89.6,71.6,55,30.06,9.0,SSW,5.8,-,N/A,,Clear,200,2013-07-18 20:35:00
3:55 PM,89.6,71.6,55,30.06,10.0,SSE,5.8,-,N/A,,Clear,160,2013-07-18 20:55:00
4:15 PM,89.6,71.6,55,30.06,9.0,SSE,4.6,-,N/A,,Clear,150,2013-07-18 21:15:00
5:15 PM,91.4,73.4,55,30.07,9.0,SW,3.5,-,N/A,,Clear,230,2013-07-18 22:15:00
5:35 PM,91.4,73.4,55,30.06,9.0,Calm,Calm,-,N/A,,Clear,0,2013-07-18 22:35:00
5:55 PM,89.6,71.6,55,30.06,9.0,Calm,Calm,-,N/A,,Clear,0,2013-07-18 22:55:00
6:15 PM,89.6,71.6,55,30.07,8.0,Calm,Calm,-,N/A,,Light Drizzle,0,2013-07-18 23:15:00
6:35 PM,89.6,71.6,55,30.06,9.0,Calm,Calm,-,N/A,,Partly Cloudy,0,2013-07-18 23:35:00
6:55 PM,87.8,69.8,55,30.07,10.0,Calm,Calm,-,N/A,,Clear,0,2013-07-18 23:55:00
7:15 PM,87.8,69.8,55,30.07,9.0,Calm,Calm,-,N/A,,Clear,0,2013-07-19 00:15:00
7:35 PM,86.0,68.0,55,30.07,8.0,Calm,Calm,-,N/A,,Clear,0,2013-07-19 00:35:00
7:55 PM,82.4,64.4,54,30.07,8.0,Calm,Calm,-,N/A,,Clear,0,2013-07-19 00:55:00
8:15 PM,80.6,62.6,54,30.08,7.0,Calm,Calm,-,N/A,,Clear,0,2013-07-19 01:15:00
8:35 PM,78.8,60.8,54,30.07,8.0,Calm,Calm,-,N/A,,Clear,0,2013-07-19 01:35:00
8:55 PM,78.8,60.8,54,30.08,9.0,Calm,Calm,-,N/A,,Clear,0,2013-07-19 01:55:00
9:15 PM,77.0,60.8,57,30.09,7.0,Calm,Calm,-,N/A,,Clear,0,2013-07-19 02:15:00
9:35 PM,77.0,60.8,57,30.08,7.0,Calm,Calm,-,N/A,,Clear,0,2013-07-19 02:35:00
9:55 PM,77.0,60.8,57,30.08,6.0,Calm,Calm,-,N/A,,Haze,0,2013-07-19 02:55:00
10:15 PM,77.0,60.8,57,30.09,5.0,Calm,Calm,-,N/A,,Haze,0,2013-07-19 03:15:00
10:35 PM,77.0,60.8,57,30.09,8.0,Calm,Calm,-,N/A,,Clear,0,2013-07-19 03:35:00
10:55 PM,77.0,60.8,57,30.09,6.0,Calm,Calm,-,N/A,,Haze,0,2013-07-19 03:55:00
11:15 PM,75.2,59.0,57,30.09,1.2,Calm,Calm,-,N/A,,Haze,0,2013-07-19 04:15:00
11:35 PM,75.2,57.2,53,30.08,2.0,Calm,Calm,-,N/A,,Haze,0,2013-07-19 04:35:00
11:55 PM,75.2,59.0,57,30.07,3.0,Calm,Calm,-,N/A,,Haze,0,2013-07-19 04:55:00